Location: Six Mile Lake
(44.9000°N, 79.7170°W)
Time: 05:13:32
(UTC-04:00)

ESTCUBE 1 - Pass Details

Date: 05 July 2022
Orbit: 645 x 657 km, 97.9° (Epoch: 15 August)

Event Time Altitude Azimuth Distance (km) Brightness Sun altitude
Exits shadow 22:39:36 17° 122° (ESE) 1,613 ? -12.8°
Maximum altitude 22:42:19 33° 68° (ENE) 1,099 ? -13.1°
Drops below altitude 10° 22:46:19 10° 5° (N) 2,062 ? -13.5°
Sets 22:48:42 0° 356° (N) 2,979 ? -13.7°
